Location: Park Creek Village Mobile Home Park
(38.2885°N, 122.4714°W)
Time: 09:13:36
(UTC+00:00)

Okean O Rocket - Pass Details

Date: 14 December 2019
Orbit: 624 x 644 km, 98.2° (Epoch: 19 January)

Event Time Altitude Azimuth Distance (km) Brightness Sun altitude
Rises 13:52:17 0° 11° (N) 2,933 5.0 -16.4°
Reaches altitude 10° 13:54:29 10° 10° (N) 2,024 4.1 -16.0°
Maximum altitude 13:58:53 77° 285° (WNW) 657 1.5 -15.2°
Drops below altitude 10° 14:03:17 10° 199° (SSW) 2,022 4.2 -14.4°
Sets 14:05:29 0° 198° (SSW) 2,929 5.0 -13.9°
